This is the latest recevied weather packets stored in our database for station/object K3BAY-1. If no packets are shown the sender has not sent any weather packets the latest 10 day(s).
| Time | Temp. | Humidity | Pressure | Rain* | Wind** | Luminosity | Snow |
|---|---|---|---|---|---|---|---|
| 1777871241 | 10° C | 60% | 1013.9 hPa | 0 mm | - | 0 W/m² | - |
| 1777870938 | 10° C | 60% | 1013.9 hPa | 0 mm | - | 0 W/m² | - |
| 1777870636 | 10° C | 58% | 1013.9 hPa | 0 mm | - | 0 W/m² | - |
| 1777870335 | 10° C | 59% | 1013.9 hPa | 0 mm | - | 0 W/m² | - |
| 1777870034 | 10.56° C | 61% | 1013.9 hPa | 0 mm | - | 0 W/m² | - |
| 1777869731 | 10.56° C | 58% | 1013.6 hPa | 0 mm | - | 0 W/m² | - |
| 1777869428 | 10.56° C | 58% | 1013.6 hPa | 0 mm | - | 0 W/m² | - |
| 1777869124 | 10.56° C | 59% | 1013.6 hPa | 0 mm | - | 0 W/m² | - |
| 1777868822 | 10.56° C | 60% | 1013.6 hPa | 0 mm | - | 0 W/m² | - |
| 1777868518 | 10.56° C | 60% | 1013.6 hPa | 0 mm | - | 0 W/m² | - |
| 1777868214 | 10.56° C | 59% | 1013.6 hPa | 0 mm | - | 0 W/m² | - |
| 1777867910 | 10.56° C | 60% | 1013.9 hPa | 0 mm | - | 0 W/m² | - |
| 1777867608 | 10.56° C | 61% | 1013.6 hPa | 0 mm | - | 0 W/m² | - |
| 1777867304 | 10.56° C | 61% | 1013.2 hPa | 0 mm | - | 0 W/m² | - |
| 1777867001 | 10.56° C | 61% | 1013.6 hPa | 0 mm | - | 0 W/m² | - |
| 1777866698 | 10.56° C | 59% | 1013.6 hPa | 0 mm | - | 0 W/m² | - |
| 1777866396 | 10.56° C | 58% | 1013.2 hPa | 0 mm | - | 0 W/m² | - |
| 1777866092 | 10.56° C | 61% | 1013.2 hPa | 0 mm | - | 0 W/m² | - |
| 1777865790 | 10° C | 64% | 1013.2 hPa | 0 mm | - | 0 W/m² | - |
| 1777865487 | 9.44° C | 66% | 1013.2 hPa | 0 mm | - | 0 W/m² | - |
| 1777865184 | 9.44° C | 64% | 1013.2 hPa | 0 mm | - | 0 W/m² | - |
| 1777864881 | 8.89° C | 67% | 1013.2 hPa | 0 mm | - | 0 W/m² | - |
| 1777864578 | 8.89° C | 67% | 1012.9 hPa | 0 mm | - | 0 W/m² | - |
| 1777864274 | 8.89° C | 64% | 1012.9 hPa | 0 mm | - | 0 W/m² | - |
| 1777863971 | 8.89° C | 65% | 1012.9 hPa | 0 mm | - | 0 W/m² | - |
* Rain latest hour (hover to see other rain measurements)
** Current wind speed in m/s (hover to see current wind gust speed)